Location: Newark
(43.5831°N, 21.3381°E)
Time: 05:34:55
(UTC+00:00)

Envisat - Visible Passes

Search period start: 11 December 2019 00:00
Search period end: 21 December 2019 00:00
Orbit: 764 x 766 km, 98.1° (Epoch: 10 December)

Date Brightness Start Highest point End Pass type
(mag) Time Alt. Az. Time Alt. Az. Time Alt. Az.
11 Dec 6.0 04:06:50 10° NE 04:09:40 15° E 04:12:28 10° ESE visible
11 Dec 4.0 17:00:00 10° S 17:04:51 47° W 17:09:46 10° NNW visible
12 Dec 3.9 05:07:23 10° NNE 05:12:23 55° E 05:17:21 10° S visible
12 Dec 2.9 16:22:58 10° SSE 16:28:02 81° ENE 16:33:09 10° N visible
12 Dec 6.1 18:05:37 10° WSW 18:07:41 12° W 18:09:45 10° WNW visible
13 Dec 5.4 04:31:13 10° NE 04:35:25 26° E 04:39:36 10° SSE visible
13 Dec 3.5 15:46:46 10° SE 15:51:25 38° ENE 15:56:05 10° N visible
13 Dec 5.0 17:26:14 10° SSW 17:30:31 27° W 17:34:49 10° NW visible
14 Dec 6.2 03:56:34 10° ENE 03:58:14 11° E 03:59:53 10° ESE visible
14 Dec 3.6 16:48:33 10° S 16:53:33 59° W 16:58:35 10° NNW visible
15 Dec 4.3 04:56:13 10° NNE 05:01:05 44° E 05:05:54 10° S visible
15 Dec 2.9 16:11:46 10° SSE 16:16:47 65° ENE 16:21:50 10° N visible
15 Dec 5.8 17:53:13 10° SW 17:56:16 16° W 17:59:19 10° NW visible
16 Dec 5.7 04:20:17 10° NE 04:24:02 20° E 04:27:46 10° SE visible
16 Dec 3.7 15:35:49 10° SE 15:40:13 31° ENE 15:44:38 10° N visible
16 Dec 4.6 17:14:34 10° SSW 17:19:09 34° W 17:23:46 10° NNW visible
17 Dec 3.3 05:21:31 10° NNE 05:26:38 76° ESE 05:31:42 10° S visible
17 Dec 3.2 16:37:11 10° S 16:42:15 75° WSW 16:47:21 10° NNW visible
18 Dec 4.8 04:45:05 10° NNE 04:49:44 35° E 04:54:21 10° SSE visible
18 Dec 3.1 16:00:39 10° SE 16:05:32 51° ENE 16:10:28 10° N visible
18 Dec 5.5 17:41:11 10° SW 17:44:52 20° W 17:48:33 10° NW visible
19 Dec 6.0 04:09:30 10° NE 04:12:38 16° E 04:15:45 10° SE visible
19 Dec 4.0 15:24:56 10° ESE 15:29:02 25° ENE 15:33:07 10° N visible
19 Dec 4.2 17:03:00 10° S 17:07:48 43° W 17:12:39 10° NNW visible
20 Dec 3.7 05:10:17 10° NNE 05:15:20 60° E 05:20:21 10° S visible
20 Dec 2.9 16:25:53 10° SSE 16:30:58 88° ENE 16:36:04 10° NNW visible
20 Dec 6.2 18:09:12 10° WSW 18:10:40 11° W 18:12:08 10° WNW visible
